Regional Weather Roundup
Issued by NWS State College, PA

Home | Current Version | Previous Version | Graphics & Text | Print | Product List | Glossary Off
Versions: 1 2 3 4 5 6 7 8 9 10 11 12 13 14 15 16 17 18 19 20 21 22 23 24 25 26 27 28 29 30 31 32 33 34 35 36 37 38 39 40 41 42 43 44 45 46 47 48 49 50

562
ASUS41 KCTP 310203
RWRCTP

REGIONAL WEATHER ROUNDUP
NATIONAL WEATHER SERVICE STATE COLLEGE PA
1000 PM EDT TUE AUG 30 2016

Note: "fair" indicates few or no clouds below 12,000 feet with no
significant weather and/or obstructions to visibility.

* = STATION THAT DOES NOT REPORT PRECIPITATION /E.G. RAIN...SNOW...ETC/
    THUNDER OR FOG.

PAZ002>004-007>009-013>016-020>023-029>032-310300-
WESTERN PENNSYLVANIA

CITY           SKY/WX    TMP DP  RH WIND       PRES   REMARKS
ERIE           CLOUDY    72  64  76 CALM      30.06S
MEADVILLE      PTCLDY    68  60  75 CALM      30.10R
FRANKLIN*        N/A     64  59  82 CALM      30.11S
NEW CASTLE     FAIR      66  60  81 CALM      30.09R
BEAVER COUNTY  NOT AVBL
BUTLER*        NOT AVBL
PITTSBURGH INT PTCLDY    76  53  44 CALM      30.08R
PITTSBURGH     CLEAR     78  46  32 CALM      30.08R
INDIANA*       CLEAR     66  61  82 CALM      30.13R
LATROBE        CLEAR     66  57  72 CALM      30.10R
WASHINGTON CO* CLEAR     61  57  88 CALM      30.09R
$$

PAZ004>006-010>012-017>019-024>028-033>037-041-042-045-046-049>053-310300-
CENTRAL PENNSYLVANIA

CITY           SKY/WX    TMP DP  RH WIND       PRES   REMARKS
BRADFORD       CLEAR     63  61  93 CALM      30.13S
DUBOIS         CLOUDY    66  60  81 CALM      30.11S
CLEARFIELD     NOT AVBL
JOHNSTOWN      CLEAR     70  57  63 E5        30.14R
ALTOONA        CLEAR     66  62  87 CALM      30.10S
STATE COLLEGE  CLOUDY    71  60  69 CALM      30.09S
WILLIAMSPORT   PTCLDY    70  63  78 NW3       30.05R
SELINSGROVE    CLOUDY    66  66 100 CALM      30.06R
FT INDIANTOWN  CLOUDY    69  62  78 NE2       30.06R
CAPITAL CITY   MOCLDY    79  63  57 NE3       30.05R
HARRISBURG     MOCLDY    73  67  81 SE5       30.04R
YORK           CLOUDY    69  63  81 CALM      30.06R
$$

PAZ038>040-043-044-047-048-054-055-060>062-067>071-310300-
EASTERN PENNSYLVANIA

CITY           SKY/WX    TMP DP  RH WIND       PRES   REMARKS
SCRANTON       PTCLDY    71  60  68 SE5       30.08R
MOUNT POCONO   MOCLDY    61  58  90 CALM      30.13R
ALLENTOWN      PTCLDY    72  60  66 CALM      30.06R
QUAKERTOWN*    CLEAR     66  61  82 CALM      30.08R
READING        CLEAR     72  62  71 CALM      30.05R
LANCASTER      PTCLDY    72  64  76 CALM      30.06R
COATESVILLE    CLEAR     68  59  73 CALM      30.08S
POTTSTOWN      PTCLDY    69  59  70 CALM      30.07R
BLUE BELL      CLEAR     68  64  88 CALM      30.05S
DOYLESTOWN     CLEAR     73  67  81 CALM      30.06R
WILLOW GROVE   NOT AVBL
NORTH PHILA    MOCLDY    78  71  79 SE8       30.07R
PHILADELPHIA   PTCLDY    78  71  79 S5        30.05R
$$




USA.gov is the U.S. government's official web portal to all federal, state and local government web resources and services.